Hourly Weather Homichevo

Today, 16 April, Friday

Time Temperature Precipitation Wind Pressure Humidity
00:00 +5°C° 0.1 mm 3 mps 746 mmHg 94%
01:00 +5°C° 0.1 mm 3 mps 746 mmHg 94%
02:00 +5°C° 0 mm 3 mps 745 mmHg 95%
03:00 +5°C° 0.9 mm 3 mps 745 mmHg 96%
04:00 +6°C° 0.9 mm 2 mps 745 mmHg 96%
05:00 +6°C° 0.9 mm 2 mps 745 mmHg 97%
06:00 +6°C° 0.2 mm 2 mps 745 mmHg 96%
07:00 +6°C° 0.2 mm 2 mps 745 mmHg 96%
08:00 +7°C° 0 mm 1 mps 745 mmHg 96%
09:00 +8°C° 0.1 mm 1 mps 745 mmHg 93%
10:00 +9°C° 0.1 mm 1 mps 745 mmHg 90%
11:00 +10°C° 0.1 mm 1 mps 745 mmHg 87%
12:00 +9°C° 0.3 mm 2 mps 745 mmHg 84%
13:00 +10°C° 0.3 mm 2 mps 745 mmHg 81%
14:00 +12°C° 0.3 mm 2 mps 745 mmHg 77%
15:00 +10°C° 0.4 mm 2 mps 745 mmHg 81%
16:00 +10°C° 0.4 mm 2 mps 745 mmHg 84%
17:00 +9°C° 0.4 mm 2 mps 745 mmHg 88%
18:00 +8°C° 0.1 mm 2 mps 746 mmHg 90%
19:00 +8°C° 0.1 mm 2 mps 746 mmHg 92%
20:00 +7°C° 0.1 mm 2 mps 747 mmHg 93%
21:00 +7°C° 0 mm 2 mps 747 mmHg 94%
22:00 +8°C° 0 mm 1 mps 747 mmHg 94%
23:00 +8°C° 0 mm 1 mps 747 mmHg 95%

Tomorrow, 17 April, Saturday

Time Temperature Precipitation Wind Pressure Humidity
00:00 +7°C° 0 mm 1 mps 748 mmHg 95%
01:00 +7°C° 0 mm 1 mps 748 mmHg 95%
02:00 +7°C° 0 mm 1 mps 748 mmHg 95%
03:00 +7°C° 0 mm 1 mps 748 mmHg 95%
04:00 +7°C° 0 mm 1 mps 748 mmHg 95%
05:00 +7°C° 0 mm 1 mps 749 mmHg 95%
06:00 +7°C° 0 mm 1 mps 749 mmHg 93%
07:00 +7°C° 0 mm 0 mps 749 mmHg 90%
08:00 +7°C° 0 mm 0 mps 750 mmHg 88%
09:00 +8°C° 0.1 mm 0 mps 750 mmHg 83%
10:00 +11°C° 0.1 mm 1 mps 750 mmHg 78%
11:00 +12°C° 0.1 mm 1 mps 750 mmHg 73%
12:00 +12°C° 0.3 mm 1 mps 750 mmHg 69%
13:00 +13°C° 0.3 mm 1 mps 750 mmHg 65%
14:00 +14°C° 0.3 mm 1 mps 750 mmHg 61%
15:00 +14°C° 0.4 mm 1 mps 750 mmHg 62%
16:00 +13°C° 0.4 mm 1 mps 750 mmHg 63%
17:00 +13°C° 0.4 mm 1 mps 750 mmHg 64%
18:00 +12°C° 0.2 mm 1 mps 751 mmHg 70%
19:00 +11°C° 0.2 mm 1 mps 751 mmHg 77%
20:00 +8°C° 0.2 mm 2 mps 751 mmHg 83%
21:00 +8°C° 0 mm 2 mps 751 mmHg 85%
22:00 +7°C° 0 mm 2 mps 751 mmHg 87%
23:00 +7°C° 0 mm 2 mps 751 mmHg 89%

Day after tomorrow, 18 April, Sunday

Time Temperature Precipitation Wind Pressure Humidity
00:00 +7°C° 0 mm 2 mps 751 mmHg 90%
01:00 +6°C° 0 mm 2 mps 751 mmHg 92%
02:00 +5°C° 0 mm 3 mps 751 mmHg 93%
03:00 +5°C° 0 mm 3 mps 751 mmHg 93%
04:00 +6°C° 0 mm 2 mps 750 mmHg 93%
05:00 +6°C° 0 mm 2 mps 750 mmHg 93%
06:00 +7°C° 0 mm 3 mps 750 mmHg 92%
07:00 +8°C° 0 mm 3 mps 750 mmHg 90%
08:00 +9°C° 0 mm 3 mps 750 mmHg 89%
09:00 +9°C° 0.1 mm 3 mps 750 mmHg 86%
10:00 +10°C° 0.1 mm 3 mps 750 mmHg 82%
11:00 +11°C° 0.1 mm 4 mps 750 mmHg 79%
12:00 +11°C° 0 mm 4 mps 750 mmHg 74%
13:00 +11°C° 0 mm 4 mps 750 mmHg 70%
14:00 +11°C° 0 mm 4 mps 751 mmHg 65%
15:00 +12°C° 0 mm 3 mps 750 mmHg 61%
16:00 +12°C° 0 mm 3 mps 750 mmHg 56%
17:00 +13°C° 0 mm 3 mps 750 mmHg 52%
18:00 +11°C° 0 mm 3 mps 750 mmHg 58%
19:00 +10°C° 0 mm 2 mps 751 mmHg 65%
20:00 +8°C° 0 mm 2 mps 751 mmHg 71%
21:00 +9°C° 0 mm 1 mps 751 mmHg 74%
22:00 +8°C° 0 mm 1 mps 751 mmHg 76%
23:00 +8°C° 0 mm 1 mps 751 mmHg 79%

19 April, Monday

Time Temperature Precipitation Wind Pressure Humidity
00:00 +7°C° 0 mm 1 mps 751 mmHg 82%
01:00 +7°C° 0 mm 1 mps 751 mmHg 86%
02:00 +5°C° 0 mm 2 mps 751 mmHg 89%
03:00 +5°C° 0 mm 2 mps 751 mmHg 91%
04:00 +4°C° 0 mm 2 mps 750 mmHg 92%
05:00 +4°C° 0 mm 2 mps 750 mmHg 94%
06:00 +4°C° 0 mm 3 mps 750 mmHg 90%
07:00 +5°C° 0 mm 3 mps 750 mmHg 86%
08:00 +7°C° 0 mm 3 mps 750 mmHg 82%
09:00 +8°C° 0 mm 3 mps 750 mmHg 77%
10:00 +8°C° 0 mm 3 mps 750 mmHg 73%
11:00 +9°C° 0 mm 3 mps 750 mmHg 68%
12:00 +9°C° 0 mm 3 mps 749 mmHg 68%
13:00 +9°C° 0 mm 3 mps 749 mmHg 67%
14:00 +8°C° 0 mm 4 mps 749 mmHg 66%
15:00 +9°C° 0 mm 3 mps 748 mmHg 69%
16:00 +9°C° 0 mm 3 mps 748 mmHg 72%
17:00 +8°C° 0 mm 3 mps 748 mmHg 74%
18:00 +8°C° 0 mm 3 mps 748 mmHg 78%
19:00 +7°C° 0 mm 3 mps 747 mmHg 81%
20:00 +7°C° 0 mm 3 mps 747 mmHg 85%
21:00 +7°C° 0 mm 2 mps 747 mmHg 86%
22:00 +6°C° 0 mm 2 mps 747 mmHg 87%
23:00 +7°C° 0 mm 1 mps 746 mmHg 87%

20 April, Tuesday

Time Temperature Precipitation Wind Pressure Humidity
00:00 +6°C° 0 mm 2 mps 746 mmHg 88%
01:00 +6°C° 0 mm 2 mps 745 mmHg 89%
02:00 +5°C° 0 mm 3 mps 744 mmHg 90%
03:00 +5°C° 0 mm 2 mps 744 mmHg 91%
04:00 +5°C° 0 mm 2 mps 744 mmHg 92%
05:00 +6°C° 0 mm 1 mps 744 mmHg 93%
06:00 +6°C° 0 mm 2 mps 743 mmHg 90%
07:00 +5°C° 0 mm 3 mps 743 mmHg 87%
08:00 +5°C° 0 mm 3 mps 742 mmHg 85%
09:00 +7°C° 0.1 mm 4 mps 742 mmHg 77%
10:00 +8°C° 0.1 mm 4 mps 742 mmHg 70%
11:00 +9°C° 0.1 mm 5 mps 741 mmHg 62%
12:00 +9°C° 0.1 mm 5 mps 741 mmHg 62%
13:00 +9°C° 0.1 mm 5 mps 740 mmHg 61%
14:00 +9°C° 0.1 mm 6 mps 740 mmHg 61%
15:00 +9°C° 0 mm 6 mps 740 mmHg 63%
16:00 +9°C° 0 mm 5 mps 739 mmHg 64%
17:00 +8°C° 0 mm 5 mps 739 mmHg 66%
18:00 +7°C° 0 mm 5 mps 739 mmHg 70%
19:00 +7°C° 0 mm 5 mps 739 mmHg 75%
20:00 +5°C° 0 mm 6 mps 739 mmHg 79%
21:00 +4°C° 0.2 mm 6 mps 739 mmHg 83%
22:00 +4°C° 0.2 mm 6 mps 739 mmHg 86%
23:00 +5°C° 0.2 mm 5 mps 739 mmHg 89%

21 April, Wednesday

Time Temperature Precipitation Wind Pressure Humidity
00:00 +4°C° 0.1 mm 6 mps 739 mmHg 89%
01:00 +4°C° 0.1 mm 6 mps 739 mmHg 89%
02:00 +4°C° 0.1 mm 7 mps 739 mmHg 89%
03:00 +4°C° 0.1 mm 7 mps 739 mmHg 88%
04:00 +4°C° 0.1 mm 7 mps 739 mmHg 88%
05:00 +4°C° 0.1 mm 8 mps 739 mmHg 88%
06:00 +4°C° 0 mm 8 mps 739 mmHg 85%
07:00 +4°C° 0 mm 8 mps 740 mmHg 83%
08:00 +5°C° 0 mm 8 mps 740 mmHg 81%
09:00 +6°C° 0 mm 8 mps 741 mmHg 76%
10:00 +6°C° 0 mm 8 mps 741 mmHg 70%
11:00 +7°C° 0 mm 8 mps 742 mmHg 65%
12:00 +7°C° 0 mm 8 mps 742 mmHg 64%
13:00 +9°C° 0 mm 7 mps 743 mmHg 63%
14:00 +9°C° 0 mm 7 mps 743 mmHg 62%
15:00 +8°C° 0 mm 7 mps 744 mmHg 63%
16:00 +8°C° 0 mm 6 mps 744 mmHg 64%
17:00 +8°C° 0 mm 6 mps 745 mmHg 65%
18:00 +7°C° 0 mm 5 mps 745 mmHg 68%
19:00 +6°C° 0 mm 4 mps 746 mmHg 70%
20:00 +5°C° 0 mm 3 mps 746 mmHg 72%
21:00 +5°C° 0 mm 3 mps 747 mmHg 75%
22:00 +4°C° 0 mm 3 mps 747 mmHg 78%
23:00 +4°C° 0 mm 3 mps 748 mmHg 80%
Show more